SV1BYK-2 Weather Reports


time (UTC)temp
C
wind
direction
speed
KPH
gust
KPH
rain 1hr
cm
rain 24hr
cm
rain mn
cm
humidity
%
barometer
mb
20260508115616 22 218 3.2 17.7 0.00 0.00 0.00 48 1010.6
20260508114503 22 226 3.2 11.3 0.00 0.00 0.00 50 1010.4
20260508113816 22 242 3.2 11.3 0.00 0.00 0.00 43 1010.7
20260508112704 22 192 3.2 6.4 0.00 0.00 0.00 47 1010.4
20260508111803 22 227 0.0 6.4 0.00 0.00 0.00 47 1010.8
20260508110903 22 272 3.2 9.7 0.00 0.00 0.00 47 1011.2
20260508110004 21 282 6.4 9.7 0.00 0.00 0.00 48 1011.0
20260508105403 21 264 4.8 9.7 0.00 0.00 0.00 48 1011.5
20260508104503 21 257 3.2 9.7 0.00 0.00 0.00 49 1011.4
20260508103603 21 271 3.2 11.3 0.00 0.00 0.00 47 1011.6
20260508102914 21 256 8.0 11.3 0.00 0.00 0.00 48 1011.9
20260508102016 21 256 6.4 9.7 0.00 0.00 0.00 47 1011.8
20260508101114 21 190 3.2 6.4 0.00 0.00 0.00 50 1011.7
20260508100004 21 170 1.6 6.4 0.00 0.00 0.00 53 1011.8
20260508095618 21 210 3.2 6.4 0.00 0.00 0.00 53 1012.1
20260508094715 21 114 3.2 9.7 0.00 0.00 0.00 54 1012.3
20260508093603 21 228 3.2 11.3 0.00 0.00 0.00 54 1012.6
20260508092704 21 227 1.6 12.9 0.00 0.00 0.00 53 1012.5
20260508092017 20 256 3.2 12.9 0.00 0.00 0.00 55 1012.3
20260508091114 21 206 4.8 9.7 0.00 0.00 0.00 54 1012.5
20260508090004 21 195 3.2 12.9 0.00 0.00 0.00 54 1012.6
20260508085403 20 202 3.2 12.9 0.00 0.00 0.00 55 1012.9
20260508084503 20 186 4.8 12.9 0.00 0.00 0.00 56 1012.8
20260508083813 20 210 3.2 9.7 0.00 0.00 0.00 56 1012.8
20260508082915 20 244 4.8 9.7 0.00 0.00 0.00 58 1012.9
20260508082018 20 180 3.2 6.4 0.00 0.00 0.00 57 1012.8
20260508081115 20 172 0.0 3.2 0.00 0.00 0.00 58 1012.7
20260508080004 20 230 1.6 9.7 0.00 0.00 0.00 59 1012.9
20260508075614 20 242 1.6 11.3 0.00 0.00 0.00 58 1013.0
20260508074716 20 239 6.4 12.9 0.00 0.00 0.00 58 1012.9
20260508073813 20 125 3.2 11.3 0.00 0.00 0.00 55 1013.2
20260508072704 20 89 3.2 6.4 0.00 0.00 0.00 54 1013.1
20260508072013 20 103 3.2 9.7 0.00 0.00 0.00 53 1013.0
20260508070903 20 109 4.8 9.7 0.00 0.00 0.00 49 1013.4
20260508070004 20 209 4.8 6.4 0.00 0.00 0.00 48 1013.4
20260508065614 20 201 1.6 6.4 0.00 0.00 0.00 47 1013.8
20260508064503 20 221 6.4 11.3 0.00 0.00 0.00 45 1013.6
20260508063603 20 222 3.2 9.7 0.00 0.00 0.00 44 1013.4
20260508062704 20 243 3.2 9.7 0.00 0.00 0.00 43 1013.2
20260508062014 20 257 3.2 14.5 0.00 0.00 0.00 43 1013.2
20260508060903 20 262 4.8 9.7 0.00 0.00 0.00 43 1013.0
20260508060004 20 271 3.2 11.3 0.00 0.00 0.00 44 1012.7
20260508055403 20 267 4.8 11.3 0.00 0.00 0.00 46 1012.5
20260508054503 20 263 4.8 6.4 0.00 0.00 0.00 49 1012.0
20260508053815 20 277 1.6 6.4 0.00 0.00 0.00 46 1011.9
20260508052917 20 292 3.2 3.2 0.00 0.00 0.00 52 1011.7
20260508052014 19 292 1.6 3.2 0.00 0.00 0.00 53 1011.7
20260508050903 19 292 0.0 3.2 0.00 0.00 0.00 54 1011.4
20260508050004 19 292 0.0 3.2 0.00 0.00 0.00 55 1011.6
20260508045616 19 292 1.6 3.2 0.00 0.00 0.00 55 1011.3
20260508044713 19 292 0.0 3.2 0.00 0.00 0.00 55 1011.1
20260508043816 18 292 0.0 3.2 0.00 0.00 0.00 55 1011.3
20260508042918 18 292 0.0 3.2 0.00 0.00 0.00 55 1011.1
20260508042015 18 292 0.0 3.2 0.00 0.00 0.00 56 1010.9
20260508040903 18 292 0.0 3.2 0.00 0.00 0.00 57 1010.7
20260508040004 18 292 0.0 3.2 0.00 0.00 0.00 57 1010.3
20260508035403 18 292 1.6 3.2 0.00 0.00 0.00 58 1010.5
20260508034714 18 292 1.6 3.2 0.00 0.00 0.00 59 1010.1
20260508033603 18 292 0.0 3.2 0.00 0.00 0.00 60 1010.1
20260508032913 18 0 0.0 0.0 0.00 0.00 0.00 60 1010.3
20260508032016 18 292 0.0 3.2 0.00 0.00 0.00 61 1010.1
20260508031113 18 292 0.0 3.2 0.00 0.00 0.00 60 1010.5
20260508030215 18 292 1.6 3.2 0.00 0.00 0.00 61 1010.2
20260508025403 18 292 0.0 3.2 0.00 0.00 0.00 61 1010.2
20260508024503 18 292 0.0 3.2 0.00 0.00 0.00 60 1010.5
20260508023603 18 0 0.0 0.0 0.00 0.00 0.00 60 1010.4
20260508022704 18 292 0.0 3.2 0.00 0.00 0.00 61 1010.5
20260508022016 18 292 0.0 3.2 0.00 0.00 0.00 61 1010.3
20260508021114 18 292 0.0 3.2 0.00 0.00 0.00 61 1010.4
20260508020216 18 292 0.0 3.2 0.00 0.00 0.00 62 1010.3
20260508015618 18 292 1.6 3.2 0.00 0.00 0.00 62 1010.5
20260508014715 18 292 0.0 3.2 0.00 0.00 0.00 63 1010.4
20260508013817 18 292 0.0 3.2 0.00 0.00 0.00 63 1010.7
20260508012704 18 292 0.0 3.2 0.00 0.00 0.00 63 1010.8
20260508012017 18 292 0.0 3.2 0.00 0.00 0.00 64 1010.8
20260508010903 18 292 0.0 3.2 0.00 0.00 0.00 63 1010.9
20260508010217 18 292 0.0 3.2 0.00 0.00 0.00 63 1010.9
20260508005613 18 292 0.0 3.2 0.00 0.00 0.00 63 1011.2
20260508004715 18 292 1.6 3.2 0.00 0.00 0.00 63 1011.3
20260508003603 18 292 0.0 3.2 0.00 0.00 0.00 63 1011.1
20260508002915 18 292 0.0 3.2 0.00 0.00 0.00 64 1011.2
20260508002018 18 292 0.0 3.2 0.00 0.00 0.00 64 1011.2
20260508001115 18 292 1.6 3.2 0.00 0.00 0.00 64 1011.3
20260508000219 18 292 0.0 3.2 0.00 0.00 0.00 65 1011.3
20260507235403 18 292 1.6 3.2 0.00 0.00 0.00 64 1011.4
20260507234503 18 286 3.2 6.4 0.00 0.00 0.00 64 1011.6
20260507233603 18 272 3.2 6.4 0.00 0.00 0.00 63 1011.6
20260507232704 18 268 3.2 6.4 0.00 0.00 0.00 63 1012.0
20260507231804 18 234 0.0 6.4 0.00 0.00 0.00 62 1011.8
20260507230903 18 141 3.2 6.4 0.00 0.00 0.00 62 1011.5
20260507230213 18 212 1.6 6.4 0.00 0.00 0.00 62 1011.7
20260507225614 18 233 3.2 6.4 0.00 0.00 0.00 62 1011.8
20260507224504 18 255 0.0 9.7 0.00 0.00 0.00 60 1012.1
20260507223603 18 250 1.6 6.4 0.00 0.00 0.00 60 1012.1
20260507222704 18 236 1.6 6.4 0.00 0.00 0.00 59 1012.3
20260507222014 18 240 3.2 6.4 0.00 0.00 0.00 58 1012.1
20260507221116 18 207 3.2 6.4 0.00 0.00 0.00 58 1012.2
20260507220213 18 167 0.0 6.4 0.00 0.00 0.00 57 1012.3
20260507215403 18 167 1.6 6.4 0.00 0.00 0.00 57 1012.5
20260507214503 19 239 1.6 6.4 0.00 0.00 0.00 56 1012.6
20260507213603 19 175 0.0 6.4 0.00 0.00 0.00 54 1012.6
20260507212917 19 147 3.2 6.4 0.00 0.00 0.00 54 1012.6
20260507212014 19 224 1.6 6.4 0.00 0.00 0.00 53 1012.7
20260507211117 19 228 1.6 6.4 0.00 0.00 0.00 52 1012.6
20260507210009 19 206 3.2 11.3 0.00 0.00 0.00 50 1012.7
20260507205403 20 217 3.2 11.3 0.00 0.00 0.00 48 1012.7
20260507204503 20 212 3.2 6.4 0.00 0.00 0.00 45 1012.4
20260507203603 20 268 1.6 6.4 0.00 0.00 0.00 46 1012.4
20260507202704 20 274 3.2 6.4 0.00 0.00 0.00 45 1012.5
20260507202015 20 280 4.8 6.4 0.00 0.00 0.00 46 1012.9
20260507200903 20 283 3.2 6.4 0.00 0.00 0.00 46 1012.7
20260507200215 20 270 3.2 6.4 0.00 0.00 0.00 46 1012.4
20260507195403 20 278 1.6 6.4 0.00 0.00 0.00 47 1012.4
20260507194714 20 268 3.2 6.4 0.00 0.00 0.00 46 1012.5
20260507193816 20 267 3.2 6.4 0.00 0.00 0.00 45 1012.3
20260507192913 20 289 1.6 6.4 0.00 0.00 0.00 45 1012.1
20260507192016 20 292 3.2 6.4 0.00 0.00 0.00 45 1012.5
20260507191113 20 272 1.6 6.4 0.00 0.00 0.00 45 1012.2
20260507190005 20 247 1.6 3.2 0.00 0.00 0.00 45 1012.1
20260507185403 20 245 0.0 6.4 0.00 0.00 0.00 45 1012.1
20260507184504 20 238 1.6 6.4 0.00 0.00 0.00 45 1012.2
20260507183603 20 247 3.2 6.4 0.00 0.00 0.00 44 1012.3
20260507182914 20 241 1.6 6.4 0.00 0.00 0.00 44 1012.0
20260507182016 20 171 3.2 6.4 0.00 0.00 0.00 44 1012.0
20260507181114 20 227 1.6 6.4 0.00 0.00 0.00 44 1012.0
20260507180004 20 193 3.2 6.4 0.00 0.00 0.00 44 1012.2
20260507175618 20 222 3.2 6.4 0.00 0.00 0.00 44 1012.1
20260507174715 20 270 3.2 9.7 0.00 0.00 0.00 46 1011.8
20260507173817 20 239 3.2 14.5 0.00 0.00 0.00 45 1012.0
20260507172915 20 261 1.6 14.5 0.00 0.00 0.00 45 1012.0
20260507172017 21 256 3.2 14.5 0.00 0.00 0.00 44 1012.1
20260507171114 21 256 6.4 12.9 0.00 0.00 0.00 42 1011.9
20260507170004 21 238 3.2 11.3 0.00 0.00 0.00 39 1011.7
20260507165613 21 230 4.8 11.3 0.00 0.00 0.00 39 1011.7
20260507164715 22 190 3.2 9.7 0.00 0.00 0.00 38 1011.3
20260507163603 21 204 3.2 11.3 0.00 0.00 0.00 41 1011.2
20260507162704 22 199 3.2 11.3 0.00 0.00 0.00 40 1011.4
20260507162018 22 156 3.2 6.4 0.00 0.00 0.00 43 1011.4
20260507161115 22 106 0.0 11.3 0.00 0.00 0.00 39 1011.6
20260507160004 22 131 1.6 11.3 0.00 0.00 0.00 39 1011.4
20260507155403 22 146 3.2 11.3 0.00 0.00 0.00 39 1011.6
20260507154504 22 244 3.2 9.7 0.00 0.00 0.00 43 1011.6
20260507153813 22 252 4.8 11.3 0.00 0.00 0.00 41 1011.8
20260507152916 22 263 3.2 12.9 0.00 0.00 0.00 45 1011.8
20260507151804 22 267 3.2 14.5 0.00 0.00 0.00 44 1012.2
20260507151115 22 234 9.7 14.5 0.00 0.00 0.00 44 1011.8
20260507150218 23 153 4.8 9.7 0.00 0.00 0.00 37 1012.0
20260507145614 23 235 3.2 14.5 0.00 0.00 0.00 35 1011.9
20260507144717 22 265 6.4 14.5 0.00 0.00 0.00 37 1011.9
20260507143814 23 265 8.0 17.7 0.00 0.00 0.00 37 1012.1
20260507142916 23 228 4.8 17.7 0.00 0.00 0.00 34 1012.0
20260507142014 23 145 6.4 14.5 0.00 0.00 0.00 31 1011.8
20260507141116 23 242 6.4 17.7 0.00 0.00 0.00 30 1011.8
20260507140213 24 237 4.8 17.7 0.00 0.00 0.00 31 1011.6
20260507135403 24 235 6.4 20.9 0.00 0.00 0.00 32 1011.6
20260507134717 25 210 4.8 17.7 0.00 0.00 0.00 31 1011.4
20260507133815 24 215 6.4 20.9 0.00 0.00 0.00 31 1011.3
20260507132917 24 228 6.4 17.7 0.00 0.00 0.00 32 1011.4
20260507131804 24 257 6.4 14.5 0.00 0.00 0.00 32 1011.4
20260507131117 24 247 3.2 14.5 0.00 0.00 0.00 33 1011.3
20260507130214 23 257 4.8 17.7 0.00 0.00 0.00 36 1011.5
20260507125616 22 258 11.3 17.7 0.00 0.00 0.00 45 1011.7
20260507124503 22 245 6.4 20.9 0.00 0.00 0.00 46 1011.8
20260507123603 22 256 4.8 17.7 0.00 0.00 0.00 45 1012.0
20260507122913 22 261 9.7 14.5 0.00 0.00 0.00 46 1011.9
20260507121804 22 245 6.4 14.5 0.00 0.00 0.00 45 1012.1
20260507121117 23 250 3.2 17.7 0.00 0.00 0.00 42 1012.0
20260507120004 22 226 3.2 12.9 0.00 0.00 0.00 48 1012.0